Location: Newark
(55.7083°N, 13.1992°E)
Time: 11:58:06
(UTC+00:00)

Transit 4A - Pass Details

Date: 24 February 2020
Orbit: 871 x 973 km, 66.8° (Epoch: 05 April)

Event Time Altitude Azimuth Distance (km) Brightness Sun altitude
Exits shadow 03:47:47 16° 317° (NW) 2,149 9.5 -21.0°
Maximum altitude 03:51:28 28° 7° (N) 1,575 9.3 -20.4°
Drops below altitude 10° 03:56:29 10° 66° (ENE) 2,538 11.3 -19.8°
Sets 03:59:21 0° 78° (ENE) 3,485 12.6 -19.4°
